Regional Weather Roundup
Issued by NWS

Home | Current Version | Previous Version | Text Only | Print | Product List | Glossary On
Versions: 1 2 3 4 5 6 7 8 9 10 11 12 13 14 15 16 17 18 19 20 21 22 23 24 25 26 27 28 29 30 31 32 33 34 35 36 37 38 39 40 41 42 43 44 45 46 47 48 49 50
000
ASUS44 KLUB 271610
RWRTX
WEST TEXAS WEATHER ROUNDUP
NATIONAL WEATHER SERVICE LUBBOCK TX
1000 AM CST FRI FEB 27 2015

NOTE: "FAIR" INDICATES FEW OR NO CLOUDS BELOW 12,000 FEET WITH NO
SIGNIFICANT WEATHER AND/OR OBSTRUCTIONS TO VISIBILITY.

TXZ004-006>008-010-012-014-016-OKZ002-271700-
TEXAS PANHANDLE/OKLAHOMA PANHANDLE

CITY           SKY/WX    TMP DP  RH WIND       PRES   REMARKS
AMARILLO       LGT SNOW  12   7  80 SE17      30.30R VSB 1   WCI  -5
BORGER         LGT SNOW  14   8  77 E9        30.35S WCI   2
CANADIAN       LGT SNOW  16  11  82 E13       30.42S VSB 1   WCI   2
DALHART        LGT SNOW  14   8  77 SE15      30.26S WCI  -1
DUMAS          LGT SNOW  13   8  80 E12       30.28F WCI  -1
GUYMON         LGT SNOW  13   8  81 SE10      30.34F WCI   0
HEREFORD       FLURRIES  15  10  82 SE15      30.28S WCI   0
PAMPA          LGT SNOW  12   8  81 E15       30.33F WCI  -4
PERRYTON       CLOUDY    13   8  80 SE13      30.37S WCI  -1
$$

TXZ026-029-035-045-048-271700-
SOUTHERN PANHANDLE/SOUTH PLAINS/ROLLING PLAINS

CITY           SKY/WX    TMP DP  RH WIND       PRES   REMARKS
CHILDRESS      SNOW      17  12  80 E10       30.47S VSB 1/2 WCI   5
SEMINOLE       LGT SNOW  17  13  82 E15       30.30S WCI   3
LUBBOCK        FLURRIES  14  10  84 E14       30.31F WCI  -1
PLAINVIEW      LGT SNOW  15  11  85 E13       30.29F WCI   1
SNYDER         LGT SNOW  17  14  86 NE14      30.38S WCI   3
$$

TXZ052-054-060>062-072-078-127-140-154-169-271700-
PERMIAN BASIN/CONCHO VALLEY/BIG COUNTRY/EDWARDS PLATEAU

CITY           SKY/WX    TMP DP  RH WIND       PRES   REMARKS
ABILENE        LGT SNOW  21  17  84 NE10      30.42R FOG     WCI  10
BIG SPRING     CLOUDY    21  17  85 NE17      30.36S WCI   6
BRADY          CLOUDY    28  18  64 E12       30.33S WCI  18
BROWNWOOD      CLOUDY    25  19  80 NE10      30.42R WCI  15
JUNCTION       CLOUDY    32  20  61 E12       30.31S WCI  23
MIDLAND        CLOUDY    20  17  88 NE16      30.30R FOG     WCI   6
ODESSA         FOG       19  16  88 E17       30.30R VSB 1   WCI   4
SAN ANGELO     CLOUDY    25  23  92 NE13      30.35R WCI  14
SONORA         CLOUDY    30  19  64 E8        30.34R WCI  23
SWEETWATER     CLOUDY    20  17  90 NE12      30.40S WCI   8
WINK           CLOUDY    22  17  81 NE15      30.28R WCI   9
$$

TXZ055-058-074-075-080-082-271700-
FAR WEST/SOUTHWEST MOUNTAINS/TRANS PECOS

CITY           SKY/WX    TMP DP  RH WIND       PRES   REMARKS
ALPINE         CLOUDY    24  23  96 NE5       30.20R WCI  18
DRYDEN           N/A     31  29  92 E13       30.24S WCI  21
EL PASO        CLOUDY    32  23  69 E12       30.06R WCI  23
FORT STOCKTON  CLOUDY    25  25 100 E9        30.25R FOG     WCI  15
GUADALUPE PASS FOG       18  16  92 NE24      30.07R VSB 1/2 WCI   0
MARFA          CLOUDY    27  25  93 NE13      30.10S WCI  16
PECOS          CLOUDY    26  24  93 NE12      30.29R FOG     WCI  15
PRESIDIO       CLOUDY    37  26  64 NE13      30.14R WCI  29
$$

TXZ014-016-019-021>030-083-271700
TEXAS TECH WEST TEXAS MESONET/TEXAS PANHANDLE/NORTHERN SOUTH PLAINS

CITY           SKY/WX    TMP DP  RH WIND       PRES   REMARKS
ABERNATHY 5ENE   N/A     13  11  92 E15       30.32F WCI  -3
AMARILLO 9NNE    N/A     13   8  78 SE12      30.33R WCI   0
AMARILLO 7SSE    N/A     13   8  80 E12       30.31R WCI   0
AMHERST 1NE      N/A     12  10  90 E15       30.29R WCI  -4
BOOTLEG 11WNW    N/A     11   6  80 SE16      30.23S WCI  -5
CANADIAN 6E      N/A     13   8  79 E14       30.40S WCI  -2
CAPROCK CYN SP   N/A     15  12  90 E12       30.40F WCI   1
CHILDRESS 2NNE   N/A     16  13  88 E13       30.47R WCI   2
CLARENDON 2WSW   N/A     14   9  83 E13       30.37S WCI  -1
CLAUDE 12SW      N/A     13   6  75 E15       30.31R WCI  -3
DIMMITT 2NE      N/A     11   8  87 E13       30.27S WCI  -4
FLOYDADA 2NNE    N/A     13  10  89 E15       30.32F WCI  -3
FRIONA 2NE       N/A     12   8  87 SE14      30.26S WCI  -4
GOODLETT 3W      N/A     17  14  88 NE15      30.49S WCI   2
HART 3N          N/A     11   8  86 E16       30.28S WCI  -5
HEREFORD 2NW     N/A     13   7  78 E10       30.27S WCI   0
MCLEAN 1E        N/A     12   8  84 E15       30.35S WCI  -4
MEMPHIS 1NE      N/A     16  12  84 E10       30.45F WCI   4
MULESHOE 2SSW    N/A     13  10  88 E14       30.28R WCI  -2
OLTON 6S         N/A     12   9  87 E17       30.29S WCI  -5
PALO DURO SP     N/A     13   7  76 SE6       30.33R WCI   4
PAMPA 2E         N/A     12   8  86 E15       30.34S WCI  -4
PLAINVIEW 1S     N/A     13  10  91 E10       30.30F WCI  -1
SILVERTON 7ESE   N/A     13   9  82 E16       30.34F WCI  -3
TULIA 2ENE       N/A     12   9  89 E16       30.31S WCI  -5
TURKEY 2WSW      N/A     16  13  91 E9        30.41S WCI   4
UMBARGER 3NNE    N/A     12   6  76 SE15      30.29S WCI  -4
$$

TXZ033>036-039>041-045>048-271700
TEXAS TECH WEST TEXAS MESONET/SOUTH PLAINS

CITY           SKY/WX    TMP DP  RH WIND       PRES   REMARKS
AIKEN 3WSW       N/A     13   8  81 E17       30.32F WCI  -4
ANDREWS 2NE      N/A     17  15  89 NE15      30.30S WCI   3
ANTON 6SSW       N/A     13  11  92 E15       30.30S WCI  -3
BROWNFIELD 2S    N/A     14  11  87 E16       30.31S WCI  -2
DENVR CTY 7WNW   N/A     15  11  83 E15       30.27S WCI   0
GAIL 2ESE        N/A     17  13  86 NE13      30.36S WCI   3
LAMESA 2SE       N/A     16  13  89 NE14      30.33S WCI   2
LEVELLAND 4S     N/A     14  10  85 E13       30.29S WCI   0
LUBBOCK 3WNW     N/A     15  11  83 E13       30.32F WCI   1
MORTON 1ENE      N/A     12  10  89 E16       30.27R WCI  -5
ODONNELL 1N      N/A     15  11  85 NE16      30.33S WCI  -1
PLAINS 3N        N/A     15  10  82 E14       30.27S WCI   0
RALLS 1SE        N/A     14   9  79 E15       30.34F WCI  -2
REESE CENTER     N/A     14  10  85 E14       30.30F WCI  -1
SEAGRAVES 1SW    N/A     15  13  90 E12       30.29S WCI   2
SEMINOLE 2NNE    N/A     16  13  87 E18       30.29F WCI  -1
SLATON 2NE       N/A     14  11  86 E12       30.34S WCI   1
SNYDER 3E        N/A     17  15  93 NE12      30.37S WCI   4
SUNDOWN 8SW      N/A     14   9  81 E16       30.27F WCI  -2
TAHOKA 3NNE      N/A     16  12  82 E15       30.32S WCI   2
WOLFFORTH 6SSW   N/A     15  13  89 E17       30.31S WCI  -1
$$

TXZ031-032-036>038-042>044-271700-
TEXAS TECH WEST TEXAS MESONET/ROLLING PLAINS

CITY           SKY/WX    TMP DP  RH WIND       PRES   REMARKS
ASPERMONT 3NE    N/A     19  16  87 NE10      30.45F WCI   7
FLUVANNA 3WNW    N/A     16  12  86 NE15      30.35S WCI   1
GRAHAM 5SSW      N/A     15  12  88 NE15      30.34S WCI  -1
GUTHRIE 10WSW    N/A     17  13  85 NE10      30.44S WCI   5
HASKELL 1NW      N/A     18  15  90 NE16      30.46S WCI   3
JAYTON 1SSE      N/A     17  15  93 NE9       30.43F WCI   6
KNOX CITY 3NW    N/A     19  16  86 NE9       30.49R WCI   8
LK A HENRY 1NW   N/A    N/A N/A N/A NE13      30.39F
NORTHFIELD 1S    N/A     17  14  90 E8        30.45S WCI   6
ODELL 4ENE       N/A     18  15  90 NE10      30.53R WCI   6
PADUCAH 10SW     N/A     17  15  93 E9        30.45S WCI   5
POST 1NE         N/A     17  11  80 NE13      30.38S WCI   3
RRING SPRGS 3N   N/A     14  13  94 NE10      30.39F WCI   1
SEYMOUR 3NW      N/A     19  16  88 NE15      30.49F WCI   4
SPUR 1W          N/A     16  13  90 E9        30.40F WCI   4
WEINERT 2NNE     N/A     19  14  81 NE13      30.48S WCI   6
WHITE RVR 6NE    N/A     15  10  81 NE14      30.37F WCI   0
$$

TXZ052-054-060>062-072-078-127-140-154-169-271700-
TEXAS TECH WEST TEXAS MESONET/PERMIAN BASIN/
CONCHO VALLEY/BIG COUNTRY/EDWARDS PLATEAU

CITY           SKY/WX    TMP DP  RH WIND       PRES   REMARKS
COYANOSA 2N      N/A     25  23  92 NE12      30.29S WCI  14
JUNCTION 1SSW    N/A     31  20  62 NE9       30.33S WCI  23
MERTZON 3NNE     N/A     24  22  93 NE6       30.34S WCI  16
SAN ANGELO 7NW   N/A     25  21  87 NE7       30.36S WCI  17
STRLNG CT 4WSW   N/A     21  19  91 NE9       30.35S WCI  11
ST LAWRNCE 5SW   N/A     21  21  98 NE9       30.30S WCI  11
SWEETWATR 11SW   N/A     18  15  90 NE14      30.36F WCI   4
WALL 1E          N/A     25  22  87 NE10      30.36S WCI  15
$$

TXZ055-058-074-075-080-082-271700-
TEXAS TECH WEST TEXAS MESONET/FAR WEST/SOUTHWEST MOUNTAINS/TRANS PECOS

CITY           SKY/WX    TMP DP  RH WIND       PRES   REMARKS
$$



USA.gov is the U.S. government's official web portal to all federal, state and local government web resources and services.